Retour au catalogue

ONEWEB-0378

ActifCommunicationsPO
NORAD 49304·PAYLOAD·🇬🇧 United Kingdom

Lancé Oct 14, 2021 depuis Vostochny Cosmodrome

Loading…

Prochains Passages (prochaines 24 heures)

TLE

FraisSource: CelesTrak SupGP

Époque: Sep 14, 2026, 14:07 UTC

1 49304C 21090AB  26257.58873103 -.00002611  00000+0 -64283-2 0  2572
2 49304  87.9140 256.6051 0002154  91.4743 330.6901 13.20775928    13

Suivez ONEWEB-0378 en temps réel avec AllMySat

Download on the App Store